Event Log

Records: 353,894 Pagina: 14086 / 14156
CSV
ID Machine Gebeurtenis Tijd Uren Service Status USB ID
1769 300-008XASB-S5 MSC Failure Warning 05-08-2024 12:03:59 403 -Niet ingesteld 6B2AC17805
1770 300-015XASB-S5 MSC Failure Warning 05-08-2024 12:02:35 291 -Niet ingesteld 6E2CAD8A1F
1771 300-009XASB-S5 MSC Failure Warning 05-08-2024 12:01:31 450 -Niet ingesteld 6B2AC3F7E4
1772 300-015XASB-S5 MSC Failure Warning 05-08-2024 12:01:30 291 -Niet ingesteld 6E2CAD8A1F
1773 200-065XASB-S5 Engine Start 05-08-2024 11:51:10 229 -Niet ingesteld 672CE8AFF0
1774 200-065XASB-S5 Engine Stopped 05-08-2024 11:50:56 229 -Niet ingesteld 672CE8AFF0
1775 200-065XASB-S5 Engine Start 05-08-2024 11:50:17 229 -Niet ingesteld 672CE8AFF0
1776 200-045 AS Engine Start 05-08-2024 11:43:20 456 -Niet ingesteld 6F2A305A15
1777 40-028A Battery Voltage 05-08-2024 11:40:56 5351 -Niet ingesteld 2592762C8D7
1778 200-049AS Engine Start 05-08-2024 11:27:10 3621 -Niet ingesteld 6B28F1A46A
1779 300-011XASB-S5 Engine Stopped 05-08-2024 11:11:18 429 -Niet ingesteld 6E2CAEAA1C
1780 300-009XASB-S5 Engine Stopped 05-08-2024 11:10:46 450 -Niet ingesteld 6B2AC3F7E4
1757 300-009XASB-S5 ECU Lamp 05-08-2024 10:42:35 450 -Niet ingesteld 6B2AC3F7E4
1756 300-009XASB-S5 ECU Lamp 05-08-2024 10:39:15 450 -Niet ingesteld 6B2AC3F7E4
1755 300-009XASB-S5 ECU Lamp 05-08-2024 10:38:28 450 -Niet ingesteld 6B2AC3F7E4
1753 300-009XASB-S5 ECU Lamp 05-08-2024 10:29:42 450 -Niet ingesteld 6B2AC3F7E4
1754 60-039A Low Fuel Level Warning 05-08-2024 10:29:17 1430 -Niet ingesteld 2592996E7DD
1751 300-011XASB-S5 Engine Stopped 05-08-2024 10:28:24 429 -Niet ingesteld 6E2CAEAA1C
1752 300-008XASB-S5 Engine Stopped 05-08-2024 10:28:03 403 -Niet ingesteld 6B2AC17805
1749 300-015XASB-S5 Engine Stopped 05-08-2024 10:27:44 291 -Niet ingesteld 6E2CAD8A1F
1750 300-011XASB-S5 Fail To Sync Electrical Trip 05-08-2024 10:27:25 429 -Niet ingesteld 6E2CAEAA1C
1747 300-009XASB-S5 Generator Over Current Warning 05-08-2024 10:26:32 450 -Niet ingesteld 6B2AC3F7E4
1748 300-009XASB-S5 kW Overload Alarm Warning 05-08-2024 10:26:21 450 -Niet ingesteld 6B2AC3F7E4
1745 300-011XASB-S5 Engine Start 05-08-2024 10:25:17 429 -Niet ingesteld 6E2CAEAA1C
1746 300-009XASB-S5 Engine Start 05-08-2024 10:24:56 450 -Niet ingesteld 6B2AC3F7E4
352,126–352,150 van 353,894